Cart 0
Kohler 2404106-S Air Cleaner Base Gasket

Kohler 2404106-S Air Cleaner Base Gasket

$ 9.99

Free domestic shipping with no membership fees! Easy worldwide shipping!

One new genuine OEM Kohler, Cub Cadet air cleaner base gasket # 24-041-06-s.
Supercedes part numbers 24-041-06.
Fits the following models and possibly others not listed:
· CH18-62500 Idle Speed 1200 RPM/High Speed 3750 RPM-->Air Intake/Filtration 10-24-116
· CH18-62500 Idle Speed 1200 RPM/High Speed 3750 RPM-->Fuel System 8-24-443
· CH18-62501 Idle Speed 1200 RPM/High Speed 3750 RPM-->Air Intake/Filtration 10-24-118
· CH18-62501 Idle Speed 1200 RPM/High Speed 3750 RPM-->Fuel System 8-24-443
· CH18-62502 Idle Speed 1200 RPM/High Speed 3750 RPM-->Air Intake/Filtration 10-24-116
· CH18-62502 Idle Speed 1200 RPM/High Speed 3750 RPM-->Fuel System 8-24-52 (TP-2439-C) Rev 9/28/2006
· CH18-62503 Idle Speed 1200 RPM/High Speed 3750 RPM-->Air Intake/Filtration 10-24-118
· CH18-62503 Idle Speed 1200 RPM/High Speed 3750 RPM-->Fuel System 8-24-443
· CH18-62504 High Speed 3200 RPM-->Air Intake/Filtration 10-24-118
· CH18-62504 High Speed 3200 RPM-->Fuel System 8-24-443
· CH18-62505 Idle Speed 1200 RPM/High Speed 3750 RPM-->Air Intake/Filtration 10-24-118
· CH18-62505 Idle Speed 1200 RPM/High Speed 3750 RPM-->Fuel System 8-24-443
· CH18-62506 USE CH620-3008 Idle Speed 1200 RPM/High Speed 3750 RPM-->Air Intake/Filtration 10-24-118
· CH18-62506 USE CH620-3008 Idle Speed 1200 RPM/High Speed 3750 RPM-->Fuel System 8-24-443
· CH18-62507 Idle Speed 1200 RPM/High Speed 3750 RPM-->Air Intake/Filtration
· CH18-62507 Idle Speed 1200 RPM/High Speed 3750 RPM-->Fuel System 8-24-139
· CH18-62508 Idle Speed 1200 RPM/High Speed 3750 RPM-->Air Intake 10-24-1 (TP-2439-C) Rev 9/29/2006
· CH18-62509 TRACTOR Idle Speed 1250 RPM/High Speed 3600 RPM-->Air Intake 10-24-11 (TP-2439-C) Rev 10/5/2006
· CH18-62509 TRACTOR Idle Speed 1250 RPM/High Speed 3600 RPM-->Fuel System 8-24-2 (TP-2439-C) Rev 9/28/2006
· CH18-62510 USE PA-64510 MORIDGE MFG Idle Speed 1400 RPM / High Speed 3580 RPM-->Air Intake 10-24-200 (TP-2439-C) Rev 9/28/2006
· CH18-62510 USE PA-64510 MORIDGE MFG Idle Speed 1400 RPM / High Speed 3580 RPM-->Fuel System 8-24-106 (TP-2439-C) Rev 9/28/2006
· CH18-62511 TRACTOR Idle Speed 1800 RPM / High Speed 3600 RPM-->Air Intake 10-24-1 (TP-2439-C) Rev 9/29/2006
· CH18-62511 TRACTOR Idle Speed 1800 RPM / High Speed 3600 RPM-->Fuel System 8-24-9 (TP-2439-C) Rev 9/28/2006
· CH18-62512 CARPET CLEANER High Speed 1200 RPM/High Speed 2800 RPM-->Air Intake (Cont.) 10-24-201 (TP-2439-C) Rev 9/29/2006
· CH18-62512 CARPET CLEANER High Speed 1200 RPM/High Speed 2800 RPM-->Air Intake 10-24-201 (TP-2439-C) Rev 9/29/2006
· CH18-62512 CARPET CLEANER High Speed 1200 RPM/High Speed 2800 RPM-->Fuel System 8-24-15 (TP-2439-C) Rev 9/29/2006
· CH18-62513 TRACTOR Idle Speed 1800 RPM/High Speed 3600 RPM-->Air Intake/Filtration 10-24-116
· CH18-62513 TRACTOR Idle Speed 1800 RPM/High Speed 3600 RPM-->Fuel System 8-24-9 (TP-2439-C) Rev 9/28/2006
· CH18-62514 WELDER High Speed 3700 RPM-->Air Intake 10-24-200 (TP-2439-C) Rev 9/28/2006
· CH18-62514 WELDER High Speed 3700 RPM-->Fuel System 8-24-6 (TP-2439-C) Rev 9/29/2006
· CH18-62515 Idle Speed 1800 RPM/High Speed 3600 RPM-->Air Intake 10-24-200 (TP-2439-C) Rev 9/28/2006
· CH18-62515 Idle Speed 1800 RPM/High Speed 3600 RPM-->Fuel System 8-24-14 (TP-2439-C) Rev 9/29/2006
· CH18-62516 MOWER Idle Speed 1200 RPM/High Speed 3750 RPM-->Air Intake 10-24-200 (TP-2439-C) Rev 9/28/2006
· CH18-62516 MOWER Idle Speed 1200 RPM/High Speed 3750 RPM-->Fuel System 8-24-13 (TP-2439-C) Rev 9/29/2006
· CH18-62517 SPRAYER- DISCONTINUED Idle Speed 1200 RPM / High Speed 3450 RPM-->Air Intake 10-24-5
· CH18-62517 SPRAYER- DISCONTINUED Idle Speed 1200 RPM / High Speed 3450 RPM-->Fuel System (Cont.) 8-24-21 "B" Rev 3/9/2006
· CH18-62517 SPRAYER- DISCONTINUED Idle Speed 1200 RPM / High Speed 3450 RPM-->Fuel System 8-24-21 "A" Rev 3/9/2006
· CH18-62519 VACUUM Idle Speed 1200 RPM / High Speed 3750 RPM-->Air Intake (Cont.) 10-24-201 (TP-2439-C) Rev 9/29/2006
· CH18-62519 VACUUM Idle Speed 1200 RPM / High Speed 3750 RPM-->Air Intake 10-24-201 (TP-2439-C) Rev 9/29/2006
· CH18-62519 VACUUM Idle Speed 1200 RPM / High Speed 3750 RPM-->Fuel System 8-24-6 (TP-2439-C) Rev 9/29/2006
· CH18-62520 CH18S LOFTIN EQUIPMENT -USE PA-64636 Idle Speed 1400 RPM / High Speed 2900 RPM-->Air Intake 10-24-1 (TP-2439-C) Rev 9/29/2006
· CH18-62520 CH18S LOFTIN EQUIPMENT -USE PA-64636 Idle Speed 1400 RPM / High Speed 2900 RPM-->Air Intake/Filtration
· CH18-62520 CH18S LOFTIN EQUIPMENT -USE PA-64636 Idle Speed 1400 RPM / High Speed 2900 RPM-->Fuel System 8-24-6 (TP-2439-C) Rev 9/29/2006
· CH18-62521 Idle Speed 1200 RPM / High Speed 3750 RPM-->Air Intake/Filtration 10-24-118
· CH18-62521 Idle Speed 1200 RPM / High Speed 3750 RPM-->Fuel System 8-24-461
· CH18-62522 VEHICLE Idle Speed 1200 RPM/High Speed 3750 RPM-->Air Intake (Cont.) 10-24-201 (TP-2439-C) Rev 9/29/2006
· CH18-62522 VEHICLE Idle Speed 1200 RPM/High Speed 3750 RPM-->Air Intake 10-24-201 (TP-2439-C) Rev 9/29/2006
· CH18-62522 VEHICLE Idle Speed 1200 RPM/High Speed 3750 RPM-->Fuel System 8-24-6 (TP-2439-C) Rev 9/29/2006
· CH18-62523 TRENCHER Idle Speed 1200 RPM / High Speed 3600 RPM-->Air Intake (Cont.) 10-24-201 (TP-2439-C) Rev 9/29/2006
· CH18-62523 TRENCHER Idle Speed 1200 RPM / High Speed 3600 RPM-->Air Intake 10-24-201 (TP-2439-C) Rev 9/29/2006
· CH18-62523 TRENCHER Idle Speed 1200 RPM / High Speed 3600 RPM-->Fuel System 8-24-6 (TP-2439-C) Rev 9/29/2006
· CH18-62524 LIFT Idle Speed 1200 RPM / High Speed 3600 RPM-->Air Intake 10-24-2 (TP-2439-C) Rev 9/29/2006
· CH18-62524 LIFT Idle Speed 1200 RPM / High Speed 3600 RPM-->Fuel System 8-24-6 (TP-2439-C) Rev 9/29/2006
· CH18-62525 GREENS MOWER Idle Speed 1200 RPM/High Speed 3750 RPM-->Air Intake 10-24-200 (TP-2439-C) Rev 9/28/2006
· CH18-62525 GREENS MOWER Idle Speed 1200 RPM/High Speed 3750 RPM-->Fuel System 8-24-35 (TP-2439-C) Rev 9/29/2006
· CH18-62526 TRENCHER Idle Speed 1200 RPM / High Speed 3200 RPM-->Air Intake/Filtration 10-24-116
· CH18-62526 TRENCHER Idle Speed 1200 RPM / High Speed 3200 RPM-->Fuel System (Cont.) 8-24-1 (TP-2439-C) Rev 9/29/2006
· CH18-62526 TRENCHER Idle Speed 1200 RPM / High Speed 3200 RPM-->Fuel System 8-24-1 (TP-2439-C) Rev 9/29/2006
· CH18-62527 PRESSURE WASHER Idle Speed 1200 RPM/High Speed 3750 RPM-->Air Intake (Cont.) 10-24-201 (TP-2439-C) Rev 9/29/2006
· CH18-62527 PRESSURE WASHER Idle Speed 1200 RPM/High Speed 3750 RPM-->Air Intake 10-24-201 (TP-2439-C) Rev 9/29/2006
· CH18-62527 PRESSURE WASHER Idle Speed 1200 RPM/High Speed 3750 RPM-->Fuel System 8-24-6 (TP-2439-C) Rev 9/29/2006
· CH18-62528 Idle Speed 1200 RPM / High Speed 3750 RPM-->Air Intake/Filtration 10-24-118
· CH18-62528 Idle Speed 1200 RPM / High Speed 3750 RPM-->Fuel System 8-24-461
· CH18-62529 PAVER Idle Speed 1200 RPM / High Speed 3750 RPM-->Air Intake 10-24-1 (TP-2439-C) Rev 9/29/2006
· CH18-62529 PAVER Idle Speed 1200 RPM / High Speed 3750 RPM-->Fuel System 8-24-6 (TP-2439-C) Rev 9/29/2006
· CH18-62530 BACKHOE Idle Speed 1200 RPM / High Speed 3750 RPM-->Air Intake/Filtration 10-24-116
· CH18-62530 BACKHOE Idle Speed 1200 RPM / High Speed 3750 RPM-->Fuel System 8-24-6 (TP-2439-C) Rev 9/29/2006
· CH18-62531 MOWER Idle Speed 1350 RPM / High Speed 3200 RPM-->Air Intake 10-24-1 (TP-2439-C) Rev 9/29/2006
· CH18-62531 MOWER Idle Speed 1350 RPM / High Speed 3200 RPM-->Fuel System 8-24-56 (TP-2439-C) Rev 9/29/2006
· CH18-62532 TROWEL Idle Speed 1200 RPM/High Speed 3750 RPM-->Air Intake (Cont.) 10-24-201 (TP-2439-C) Rev 9/29/2006
· CH18-62532 TROWEL Idle Speed 1200 RPM/High Speed 3750 RPM-->Air Intake 10-24-201 (TP-2439-C) Rev 9/29/2006
· CH18-62532 TROWEL Idle Speed 1200 RPM/High Speed 3750 RPM-->Fuel System 8-24-6 (TP-2439-C) Rev 9/29/2006
· CH18-62533 Idle Speed 1200 RPM / High Speed 3750 RPM-->Air Intake/Filtration 10-24-116
· CH18-62533 Idle Speed 1200 RPM / High Speed 3750 RPM-->Fuel System 8-24-389
· CH18-62534 VEHICLE Idle Speed 1200 RPM-->Air Intake/Filtration 10-24-116
· CH18-62534 VEHICLE Idle Speed 1200 RPM-->Fuel System (Cont.) 8-24-64 (TP-2439-C) Rev 9/29/2006
· CH18-62534 VEHICLE Idle Speed 1200 RPM-->Fuel System 8-24-64 (TP-2439-C) Rev 9/29/2006
· CH18-62535 CH18S WAUKESHA-PEARCE USE PA-64540 Idle Speed 1200 RPM / High Speed 3750 RPM-->Air Intake 10-24-200 (TP-2439-C) Rev 9/28/2006
· CH18-62535 CH18S WAUKESHA-PEARCE USE PA-64540 Idle Speed 1200 RPM / High Speed 3750 RPM-->Fuel System 8-24-13 (TP-2439-C) Rev 9/29/2006
· CH18-62536 TRACTOR Idle Speed 1700 RPM / High Speed 3310 RPM-->Air Intake/Filtration 10-24-118
· CH18-62538 MOWER USE CH620-3039 Idle Speed 1200 RPM / High Speed 3600 RPM-->Air Intake (Cont.) 10-24-12 (TP-2439-C) Rev 9/29/2006
· CH18-62538 MOWER USE CH620-3039 Idle Speed 1200 RPM / High Speed 3600 RPM-->Air Intake (Cont.) 10-24-12 (TP-2439-C) Rev 9/29/2006
· CH18-62538 MOWER USE CH620-3039 Idle Speed 1200 RPM / High Speed 3600 RPM-->Air Intake 10-24-12 (TP-2439-C) Rev 9/29/2006
· CH18-62538 MOWER USE CH620-3039 Idle Speed 1200 RPM / High Speed 3600 RPM-->Fuel System 8-24-81 (TP-2439-C) Rev 9/29/2006
· CH18-62539 Idle Speed 1400 RPM/High Speed 3100 RPM-->Air Intake 10-24-1 (TP-2439-C) Rev 9/29/2006
· CH18-62539 Idle Speed 1400 RPM/High Speed 3100 RPM-->Fuel System 8-24-6 (TP-2439-C) Rev 9/29/2006
· CH18-62540 Idle Speed 1200 RPM / High Speed 3750 RPM-->Air Intake/Filtration 10-24-118
· CH18-62540 Idle Speed 1200 RPM / High Speed 3750 RPM-->Fuel System 8-24-52 (TP-2439-C) Rev 9/28/2006
· CH18-62541 Idle Speed 1200 RPM/High Speed 3750 RPM-->Air Intake 10-24-2 (TP-2439-C) Rev 9/29/2006
· CH18-62541 Idle Speed 1200 RPM/High Speed 3750 RPM-->Fuel System 8-24-52 (TP-2439-C) Rev 9/28/2006
· CH18-62542 TRACTOR Idle Speed 1700 RPM / High Speed 3750 RPM-->Air Intake 10-24-2 (TP-2439-C) Rev 9/29/2006
· CH18-62542 TRACTOR Idle Speed 1700 RPM / High Speed 3750 RPM-->Fuel System 8-24-6 (TP-2439-C) Rev 9/29/2006
· CH18-62543 Idle Speed 1200 RPM/High Speed 3750-->Air Intake 10-24-1 (TP-2439-C) Rev 9/29/2006
· CH18-62543 Idle Speed 1200 RPM/High Speed 3750-->Fuel System (Cont.) 8-24-64 (TP-2439-C) Rev 9/29/2006
· CH18-62543 Idle Speed 1200 RPM/High Speed 3750-->Fuel System 8-24-64 (TP-2439-C) Rev 9/29/2006
· CH18-62544 GENERATOR High Speed 2800 RPM-->Air Intake 10-24-1 (TP-2439-C) Rev 9/29/2006
· CH18-62544 GENERATOR High Speed 2800 RPM-->Fuel System (Cont.) 8-24-90 (TP-2439-C) Rev 9/29/2006
· CH18-62544 GENERATOR High Speed 2800 RPM-->Fuel System 8-24-90 (TP-2439-C) Rev 9/29/2006
· CH18-62545 MULCHER Idle Speed 1200 RPM/High Speed 3750 RPM-->Air Intake 10-24-2 (TP-2439-C) Rev 9/29/2006
· CH18-62545 MULCHER Idle Speed 1200 RPM/High Speed 3750 RPM-->Air Intake/Filtration 10-24-118
(part location = bin # 24-041-06-s)

 


Share this Product